Location: Grasslands National Park East Block
(49.0708°N, 106.5295°W)
Time: 23:43:46
(UTC-06:00)

Vanguard 1 - Pass Details

Date: 23 September 2019
Orbit: 653 x 3830 km, 34.2° (Epoch: 22 October)

Event Time Altitude Azimuth Distance (km) Brightness Sun altitude
Rises 03:56:34 0° 245° (WSW) 7,821 - -27.9°
Reaches altitude 10° 04:02:01 10° 241° (WSW) 6,906 - -27.2°
Exits shadow 04:12:38 32° 226° (SW) 5,209 13.1 -25.8°
Maximum altitude 04:23:44 50° 176° (S) 4,030 12.9 -24.2°
Drops below altitude 10° 04:39:30 10° 107° (ESE) 5,179 14.3 -22.0°
Sets 04:42:53 0° 102° (ESE) 5,829 14.8 -21.5°
